EW7157 Weather Reports


time (UTC)temp
C
wind
direction
speed
KPH
gust
KPH
rain 1hr
cm
rain 24hr
cm
rain mn
cm
humidity
%
barometer
mb
20260905223313 23 180 0.0 0.0 0.00 0.00 0.00 60 1032.8
20260905222316 23 180 0.0 0.0 0.00 0.00 0.00 60 1032.7
20260905221414 23 180 0.0 3.2 0.00 0.00 0.00 61 1032.5
20260905221314 23 180 0.0 0.0 0.00 0.00 0.00 61 1032.5
20260905221212 23 180 0.0 0.0 0.00 0.00 0.00 62 1032.5
20260905220214 23 180 0.0 0.0 0.00 0.00 0.00 61 1032.5
20260905215129 23 180 0.0 0.0 0.00 0.00 0.00 59 1032.4
20260905213214 24 180 0.0 1.6 0.00 0.00 0.00 58 1032.5
20260905212215 24 202 0.0 0.0 0.00 0.00 0.00 59 1032.5
20260905211215 25 157 0.0 0.0 0.00 0.00 0.00 58 1032.6
20260905205213 25 157 0.0 0.0 0.00 0.00 0.00 56 1032.3
20260905204214 26 157 0.0 0.0 0.00 0.00 0.00 56 1032.3
20260905203312 26 112 0.0 0.0 0.00 0.00 0.00 56 1032.4
20260905202314 25 180 0.0 1.6 0.00 0.00 0.00 63 1032.4
20260905201412 24 90 0.0 0.0 0.00 0.00 0.00 64 1032.5
20260905200416 25 90 0.0 0.0 0.00 0.00 0.00 64 1032.6
20260905195412 25 135 0.0 0.0 0.00 0.00 0.00 60 1032.7
20260905194414 25 135 0.0 0.0 0.00 0.00 0.00 58 1032.7
20260905193413 26 135 0.0 0.0 0.00 0.00 0.00 55 1032.8
20260905192414 26 135 0.0 0.0 0.00 0.00 0.00 54 1032.8
20260905191414 26 135 0.0 0.0 0.00 0.00 0.00 56 1032.8
20260905190512 26 135 0.0 0.0 0.00 0.00 0.00 55 1032.8
20260905190413 26 135 0.0 0.0 0.00 0.00 0.00 54 1032.8
20260905185412 26 135 0.0 0.0 0.00 0.00 0.00 54 1032.8
20260905184413 26 180 0.0 0.0 0.00 0.00 0.00 55 1032.8
20260905183416 27 180 0.0 0.0 0.00 0.00 0.00 53 1032.9
20260905183313 27 180 0.0 1.6 0.00 0.00 0.00 53 1032.9
20260905182412 27 180 0.0 0.0 0.00 0.00 0.00 48 1033.0
20260905181413 28 217 0.0 0.0 0.00 0.00 0.00 48 1033.0
20260905181314 27 177 1.6 6.4 0.00 0.00 0.00 48 1033.0
20260905180312 27 135 0.0 0.0 0.00 0.00 0.00 48 1032.9
20260905174315 27 180 0.0 0.0 0.00 0.00 0.00 51 1033.1
20260905172414 27 185 0.0 0.0 0.00 0.00 0.00 49 1033.2
20260905171413 27 180 0.0 0.0 0.00 0.00 0.00 50 1033.3
20260905165514 27 90 1.6 3.2 0.00 0.00 0.00 48 1033.3
20260905163613 26 135 0.0 0.0 0.00 0.00 0.00 48 1033.7
20260905161613 26 135 0.0 0.0 0.00 0.00 0.00 50 1034.0
20260905160615 26 246 0.0 0.0 0.00 0.00 0.00 50 1033.9
20260905155613 26 115 1.6 4.8 0.00 0.00 0.00 50 1033.9
20260905154614 26 90 0.0 1.6 0.00 0.00 0.00 50 1033.8
20260905152613 26 180 0.0 1.6 0.00 0.00 0.00 52 1033.9
20260905151613 26 180 0.0 0.0 0.00 0.00 0.00 52 1034.0
20260905151513 26 180 0.0 0.0 0.00 0.00 0.00 52 1034.0
20260905150513 26 95 0.0 1.6 0.00 0.00 0.00 53 1033.9
20260905145514 26 164 1.6 6.4 0.00 0.00 0.00 54 1033.8
20260905145415 26 157 0.0 3.2 0.00 0.00 0.00 55 1033.7
20260905144514 26 135 0.0 1.6 0.00 0.00 0.00 55 1033.6
20260905143516 25 180 0.0 0.0 0.00 0.05 0.00 56 1033.7
20260905142515 25 90 1.6 3.2 0.00 0.05 0.00 59 1033.6
20260905141614 25 90 0.0 0.0 0.00 0.05 0.00 59 1033.6
20260905140614 25 117 0.0 1.6 0.00 0.05 0.00 61 1033.6
20260905135614 25 45 0.0 3.2 0.00 0.05 0.00 63 1033.5
20260905131714 22 225 0.0 0.0 0.00 0.05 0.00 74 1033.6
20260905130615 22 180 0.0 0.0 0.00 0.05 0.00 75 1033.5
20260905125614 21 180 0.0 0.0 0.00 0.05 0.00 78 1033.6
20260905124613 21 180 0.0 0.0 0.00 0.05 0.00 79 1033.8
20260905123614 21 180 0.0 0.0 0.00 0.05 0.00 79 1034.0
20260905123513 21 180 0.0 0.0 0.00 0.05 0.00 80 1034.0
20260905122414 21 180 0.0 0.0 0.00 0.05 0.00 82 1034.1
20260905121514 20 180 0.0 0.0 0.00 0.05 0.00 83 1033.8
20260905120516 20 180 0.0 0.0 0.00 0.05 0.00 83 1034.1
20260905115513 20 180 0.0 0.0 0.00 0.05 0.00 82 1034.1
20260905114514 20 180 0.0 0.0 0.00 0.05 0.00 83 1033.9
20260905113513 20 180 0.0 0.0 0.00 0.05 0.00 83 1033.7
20260905112516 20 180 0.0 0.0 0.00 0.05 0.00 82 1033.7
20260905105613 20 180 0.0 0.0 0.00 0.05 0.00 81 1033.3
20260905104614 20 180 0.0 0.0 0.00 0.05 0.00 81 1033.1
20260905103713 20 180 0.0 0.0 0.00 0.05 0.00 80 1033.1
20260905103614 20 180 0.0 0.0 0.00 0.05 0.00 81 1033.1
20260905102615 20 180 0.0 0.0 0.00 0.05 0.00 81 1033.0
20260905101615 20 180 0.0 0.0 0.00 0.05 0.00 80 1032.9
20260905095714 21 180 0.0 0.0 0.00 0.05 0.00 81 1033.0
20260905094715 21 180 0.0 0.0 0.00 0.05 0.00 81 1032.8
20260905092813 21 180 0.0 0.0 0.00 0.05 0.00 80 1032.7
20260905091815 21 180 0.0 0.0 0.00 0.05 0.00 80 1032.9
20260905090815 21 180 0.0 0.0 0.00 0.05 0.00 79 1032.9
20260905085814 21 180 0.0 0.0 0.00 0.05 0.00 80 1032.8
20260905084815 21 180 0.0 0.0 0.00 0.05 0.00 81 1032.7
20260905084713 21 180 0.0 0.0 0.00 0.05 0.00 81 1032.8
20260905083813 21 180 0.0 0.0 0.00 0.05 0.00 81 1032.6
20260905082813 21 180 0.0 0.0 0.00 0.05 0.00 81 1032.6
20260905081814 21 180 0.0 0.0 0.00 0.05 0.00 82 1032.6
20260905080912 21 180 0.0 0.0 0.00 0.05 0.00 83 1032.6
20260905075914 21 180 0.0 0.0 0.00 0.05 0.00 82 1032.8
20260905073916 21 180 0.0 0.0 0.00 0.05 0.00 82 1032.8
20260905070014 21 180 0.0 0.0 0.00 0.05 0.00 83 1032.8
20260905065915 21 180 0.0 0.0 0.00 0.05 0.00 83 1032.8
20260905064915 21 180 0.0 0.0 0.00 0.05 0.00 83 1033.0
20260905063915 21 180 0.0 0.0 0.00 0.05 0.00 83 1033.1
20260905061914 21 180 0.0 0.0 0.00 0.05 0.00 83 1033.1
20260905060914 21 180 0.0 0.0 0.00 0.05 0.00 81 1033.0
20260905060812 21 180 0.0 0.0 0.00 0.05 0.00 81 1033.0
20260905055814 21 180 0.0 0.0 0.00 0.05 0.00 80 1033.1
20260905053912 21 180 0.0 0.0 0.00 0.05 0.00 80 1033.1
20260905052916 22 180 0.0 0.0 0.00 0.05 0.00 80 1033.4
20260905051013 22 180 0.0 0.0 0.00 0.05 0.00 81 1033.4
20260905050016 22 180 0.0 0.0 0.00 0.05 0.00 80 1033.5
20260905045913 22 180 0.0 0.0 0.00 0.05 0.00 81 1033.4
20260905045012 22 180 0.0 0.0 0.00 0.05 0.00 80 1033.4
20260905044013 22 180 0.0 0.0 0.00 0.05 0.00 82 1033.6
20260905043014 22 180 0.0 0.0 0.00 0.05 0.00 82 1033.4
20260905042014 23 180 0.0 0.0 0.00 0.05 0.00 82 1033.5
20260905041912 23 180 0.0 0.0 0.00 0.05 0.00 82 1033.6
20260905035922 23 180 0.0 0.0 0.00 0.05 0.05 82 1033.6
20260905033924 23 180 0.0 0.0 0.00 0.05 0.05 81 1033.6
20260905032924 23 180 0.0 0.0 0.00 0.05 0.05 82 1033.6
20260905032822 23 180 0.0 0.0 0.00 0.05 0.05 82 1033.4
20260905031823 23 180 0.0 0.0 0.00 0.05 0.05 82 1033.4
20260905030823 23 180 0.0 0.0 0.00 0.05 0.05 81 1033.4
20260905025922 23 180 0.0 0.0 0.00 0.05 0.05 81 1033.3
20260905023923 23 180 0.0 0.0 0.00 0.05 0.05 82 1033.4
20260905023022 23 180 0.0 0.0 0.00 0.05 0.05 81 1033.3
20260905021922 23 180 0.0 0.0 0.00 0.05 0.05 81 1033.3
20260905020922 23 180 0.0 0.0 0.00 0.05 0.05 80 1033.5
20260905015923 23 180 0.0 0.0 0.00 0.05 0.05 80 1033.4
20260905014923 23 180 0.0 0.0 0.00 0.05 0.05 80 1033.4
20260905013924 23 180 0.0 0.0 0.00 0.05 0.05 79 1033.3
20260905013022 23 180 0.0 0.0 0.00 0.05 0.05 80 1033.4
20260905012023 23 180 0.0 0.0 0.00 0.05 0.05 81 1033.6
20260905011023 23 180 0.0 0.0 0.00 0.05 0.05 80 1033.5
20260905005025 23 180 0.0 0.0 0.00 0.05 0.05 80 1033.5
20260905004025 23 180 0.0 0.0 0.00 0.05 0.05 79 1033.3
20260905003023 23 180 0.0 0.0 0.00 0.05 0.05 78 1033.5
20260905002023 23 180 0.0 0.0 0.00 0.05 0.05 77 1033.2
20260905001021 24 180 0.0 0.0 0.00 0.05 0.05 77 1033.1
20260905000021 24 180 0.0 0.0 0.00 0.05 0.05 76 1032.9
20260904235022 24 180 0.0 0.0 0.00 0.05 0.05 75 1032.9
20260904234023 25 180 0.0 0.0 0.00 0.05 0.05 75 1032.9
20260904233023 25 180 0.0 0.0 0.00 0.05 0.05 75 1032.9
20260904232022 25 180 0.0 0.0 0.00 0.05 0.05 74 1033.0
20260904231923 25 180 0.0 0.0 0.00 0.05 0.05 73 1032.8
20260904230922 25 180 0.0 0.0 0.00 0.05 0.05 73 1033.0
20260904225923 26 180 0.0 0.0 0.00 0.05 0.05 73 1032.9
20260904224922 26 180 0.0 0.0 0.00 0.05 0.05 72 1033.0